Regional Weather Roundup
Issued by NWS

Home | Current Version | Previous Version | Graphics & Text | Print | Product List | Glossary On
Versions: 1 2 3 4 5 6 7 8 9 10 11 12 13 14 15 16 17 18 19 20 21 22 23 24 25 26 27 28
000
ASUS45 KTFX 230410
RWRMT
MONTANA REGIONAL WEATHER ROUNDUP
NATIONAL WEATHER SERVICE GREAT FALLS MT
1000 PM MDT MON MAY 22 2017

NOTE: "FAIR" INDICATES FEW OR NO CLOUDS BELOW 12000 FEET WITH NO
SIGNIFICANT WEATHER AND/OR OBSTRUCTIONS TO VISIBILITY.

MTZ001>007-043-230500-
WEST OF THE DIVIDE

CITY           SKY/WX    TMP DP  RH WIND       PRES   REMARKS
KALISPELL      CLEAR     63  43  48 SW3       30.10S
MISSOULA       CLEAR     62  38  40 N6        30.15R
BUTTE          CLEAR     56  34  43 S8        30.28R
MULLAN PASS    CLEAR     56  34  43 NW6       30.27R
ANACONDA         N/A     57  39  51 SW5       30.25R
DEER LODGE       N/A     54  39  58 W6        30.26R
EUREKA           N/A     63  46  55 CALM      30.08R
HAMILTON         N/A     59  45  58 E5        30.17R
LIBBY            N/A     61  45  55 CALM      30.09R
RONAN            N/A     59  41  51 E3        30.17S
$$

MTZ008-052>055-230500-
SOUTHWEST MONTANA

CITY           SKY/WX    TMP DP  RH WIND       PRES   REMARKS
BOZEMAN        CLOUDY    51  42  71 SE7       30.24R
DILLON         CLEAR     55  37  50 E6        30.25R
W YELLOWSTONE  CLEAR     46  34  61 NE5       30.32R
ENNIS          CLEAR     50  37  62 NW7       30.31R
THREE FORKS      N/A     57  42  57 CALM      30.21R
$$

MTZ009-010-012-014-046-048-049-054-230500-
EAST SLOPES AND CENTRAL MONTANA

CITY           SKY/WX    TMP DP  RH WIND       PRES   REMARKS
CUT BANK       CLEAR     55  37  50 E9        30.19R
GREAT FALLS    CLEAR     58  38  47 E3        30.19S
HELENA         CLEAR     64  40  41 SW5       30.20S
AUGUSTA          N/A     50  42  73 W3        30.21S
BOWMANS CRNR     N/A     60  38  45 CALM      30.20S
CHOTEAU          N/A     54  41  62 E13       30.22S
FAIRFIELD        N/A     58  39  47 E10       30.19S
POWER            N/A     52  37  55 E8        30.19S
RAYNESFORD       N/A     49  40  72 CALM      30.22R
ULM              N/A     53  45  75 SE3       30.19S
$$

MTZ011-013-016-021-045-047-050-051-230500-
NORTH CENTRAL MONTANA

CITY           SKY/WX    TMP DP  RH WIND       PRES   REMARKS
HAVRE          CLEAR     53  39  59 E7        30.18R
LEWISTOWN      CLEAR     51  35  54 SE6       30.22R
N BAR RANCH      N/A     50  32  50 SW3       30.27R
CHINOOK          N/A     59  32  36 CALM      30.18R
DENTON           N/A     55  35  46 N12       30.18R
FORT BENTON      N/A    N/A N/A N/A MISG      30.18R
GEYSER           N/A     52  34  51 W3        30.22R
JUDITH GAP       N/A     49  35  60 CALM      30.23R
STANFORD         N/A     51  37  57 NW3       30.23R
WINIFRED         N/A     49  35  59 E12       30.20R
$$

MTZ017>020-022>027-061-062-230500-
NORTHEAST MONTANA

CITY           SKY/WX    TMP DP  RH WIND       PRES   REMARKS
GLASGOW        CLEAR     51  33  50 NE9       30.17R
JORDAN           N/A     48  34  58 N7        30.19R
SIDNEY         CLOUDY    59  34  39 NW12      30.12R
WOLF POINT     CLOUDY    59  33  37 N8        30.16R
MALTA          CLEAR     50  36  57 CALM      30.18R
PLENTYWOOD       N/A     57  34  41 N6        30.14R
POPLAR           N/A     57  34  41 N3        30.16R
$$

MTZ028>42-056>058-230500-
SOUTHCENTRAL AND SOUTHEAST MONTANA

CITY           SKY/WX    TMP DP  RH WIND       PRES   REMARKS
BAKER          CLOUDY    52  38  58 N7        30.15R
BILLINGS       CLEAR     58  36  43 E3        30.21R
LIVINGSTON     CLEAR     47  38  71 CALM      30.24R
MILES CITY     CLEAR     50  39  66 W8        30.17R
BIG TIMBER     CLEAR     48  41  76 S6        30.27R
FORSYTH          N/A     50  39  66 CALM      30.19R
LAUREL           N/A     52  32  46 CALM      30.19F
ROUNDUP          N/A     54  29  38 NE3       30.12R
$$

REGIONAL REPORTS...DAKOTAS

CITY           SKY/WX    TMP DP  RH WIND       PRES   REMARKS
WILLISTON      CLOUDY    58  36  43 N6        30.12R
MINOT          CLOUDY    50  37  61 N5        30.08R
DICKINSON      CLOUDY    53  35  50 NW9       30.08R
BEACH          CLOUDY    50  39  66 NW7       30.16R
TIOGA            N/A     46  32  57 E8        30.14R
WATFORD CITY     N/A     54  34  47 NE7       30.11R
BISMARCK       CLOUDY    54  41  61 NE13      30.05R
GRAND FORKS    CLOUDY    50  47  89 N12       29.92R
FARGO          CLOUDY    49  47  93 N13       29.90R
BUFFALO SD       N/A     50  41  71 NW13      30.06R
RAPID CITY     MOCLDY    46  40  79 NW8       30.13R
$$

REGIONAL REPORTS...WYOMING/IDAHO/WASHINGTON

CITY           SKY/WX    TMP DP  RH WIND       PRES   REMARKS
GILLETTE       CLOUDY    46  42  86 E3        30.21R
SHERIDAN       CLEAR     47  39  74 W13       30.22R
BUFFALO WY     PTCLDY    49  35  58 NW9       30.24R
CODY           PTCLDY    51  35  54 NW8G16    30.28R
YELLOWSTONE LA   N/A     35  31  85 VRB5      30.38S
IDAHO FALLS    CLEAR     62  38  40 NE3       30.21R
SALMON         CLEAR     61  39  44 SE6       30.14R
BOISE          CLEAR     70  39  32 SE3       30.09S
SPOKANE        PTCLDY    74  44  34 SW6       30.10R
$$

REGIONAL REPORTS...ALBERTA

CITY           SKY/WX    TMP DP  RH WIND       PRES   REMARKS
EDMONTON       CLEAR     66  45  45 S3        30.00S
CALGARY        PTCLDY    64  39  39 S9        30.08S
LETHBRIDGE     PTCLDY    55  41  58 SE10      30.13R
MEDICINE HAT   CLEAR     57  39  51 SE8       30.14S
WATERTON GATE    N/A     52  41  66 SW1         N/A
CARDSTON         N/A     57  41  54 S3          N/A
MILK RIVER       N/A     54  37  54 SE8         N/A
$$

REGIONAL REPORTS...SASKATCHEWAN

CITY           SKY/WX    TMP DP  RH WIND       PRES   REMARKS
SWIFT CURRENT  CLEAR     54  30  40 SE6       30.18R
REGINA         PTCLDY    54  28  37 N6        30.14S
SASKATOON      MOCLDY    61  32  33 S6        30.14S
VAL MARIE        N/A     43  32  65 NE2         N/A
ROCKGLEN         N/A     52  32  46 NW2         N/A
ASSINIBOIA       N/A     64  45  48 SE10        N/A
$$




USA.gov is the U.S. government's official web portal to all federal, state and local government web resources and services.